TimeICT,TemperatureF,Dew PointF,Humidity,Sea Level PressureIn,VisibilityMPH,Wind Direction,Wind SpeedMPH,Gust SpeedMPH,PrecipitationIn,Events,Conditions,WindDirDegrees,DateUTC
12:00 AM,78.8,71.6,78,29.80,5.6,ENE,11.5,-,N/A,,Mostly Cloudy,70,2011-12-24 17:00:00
12:30 AM,78.8,69.8,74,29.77,5.6,ENE,11.5,-,N/A,,Mostly Cloudy,70,2011-12-24 17:30:00
1:00 AM,79,73,76,29.77,6,East,9.2,,,,Scattered Clouds,90,2011-12-24 18:00:00
1:00 AM,78.8,69.8,74,29.77,5.6,ENE,12.7,-,N/A,,Mostly Cloudy,70,2011-12-24 18:00:00
1:30 AM,78.8,71.6,78,29.77,5.6,ENE,11.5,-,N/A,,Mostly Cloudy,70,2011-12-24 18:30:00
2:00 AM,78.8,71.6,78,29.74,5.6,ENE,12.7,-,N/A,,Mostly Cloudy,70,2011-12-24 19:00:00
3:00 AM,78.8,69.8,74,29.71,5.6,East,16.1,-,N/A,,Mostly Cloudy,80,2011-12-24 20:00:00
3:30 AM,78.8,69.8,74,29.71,5.6,ENE,13.8,-,N/A,,Mostly Cloudy,70,2011-12-24 20:30:00
4:00 AM,78.8,69.8,74,29.71,5.6,ENE,16.1,-,N/A,,Mostly Cloudy,70,2011-12-24 21:00:00
4:30 AM,78.8,69.8,74,29.71,5.6,East,16.1,-,N/A,,Mostly Cloudy,80,2011-12-24 21:30:00
5:00 AM,78.8,69.8,74,29.74,5.6,East,15.0,-,N/A,,Mostly Cloudy,80,2011-12-24 22:00:00
5:30 AM,78.8,69.8,74,29.74,5.6,East,12.7,-,N/A,,Mostly Cloudy,90,2011-12-24 22:30:00
6:00 AM,78.8,69.8,74,29.77,5.6,N/A,N/A,-,N/A,,Mostly Cloudy,242,2011-12-24 23:00:00
6:05 AM,78.8,69.8,74,29.77,5.6,N/A,N/A,-,N/A,,Mostly Cloudy,242,2011-12-24 23:05:00
6:30 AM,78.8,71.6,78,29.77,5.0,East,11.5,-,N/A,,Mostly Cloudy,90,2011-12-24 23:30:00
7:00 AM,77,73,83,29.75,4,East,9.2,,,,Mist,90,2011-12-25 00:00:00
7:00 AM,78.8,71.6,78,29.77,4.3,East,10.4,-,N/A,,Mostly Cloudy,90,2011-12-25 00:00:00
7:30 AM,78.8,71.6,78,29.80,5.0,East,8.1,-,N/A,,Mostly Cloudy,100,2011-12-25 00:30:00
8:00 AM,80.6,71.6,74,29.80,5.0,East,8.1,-,N/A,,Mostly Cloudy,90,2011-12-25 01:00:00
8:30 AM,80.6,71.6,74,29.80,6.2,East,13.8,-,N/A,,Mostly Cloudy,90,2011-12-25 01:30:00
9:00 AM,80.6,71.6,74,29.80,6.2,East,13.8,-,N/A,,Mostly Cloudy,80,2011-12-25 02:00:00
9:30 AM,82.4,71.6,70,29.80,6.2,East,23.0,-,N/A,,Mostly Cloudy,90,2011-12-25 02:30:00
10:00 AM,84.2,71.6,66,29.83,6.2,East,17.3,-,N/A,,Mostly Cloudy,90,2011-12-25 03:00:00
10:30 AM,84.2,73.4,70,29.83,6.2,East,23.0,-,N/A,,Mostly Cloudy,90,2011-12-25 03:30:00
11:00 AM,84.2,71.6,66,29.83,6.2,East,21.9,-,N/A,,Mostly Cloudy,80,2011-12-25 04:00:00
11:30 AM,86.0,73.4,66,29.80,6.2,East,17.3,-,N/A,,Mostly Cloudy,90,2011-12-25 04:30:00
12:00 PM,86.0,73.4,66,29.80,6.2,East,19.6,-,N/A,,Mostly Cloudy,90,2011-12-25 05:00:00
12:30 PM,86.0,71.6,62,29.80,6.2,East,24.2,-,N/A,,Mostly Cloudy,100,2011-12-25 05:30:00
1:00 PM,86,74,60,29.75,6,East,17.3,,,,Scattered Clouds,90,2011-12-25 06:00:00
1:00 PM,86.0,73.4,66,29.80,6.2,East,23.0,-,N/A,,Mostly Cloudy,100,2011-12-25 06:00:00
1:30 PM,86.0,73.4,66,29.77,6.2,East,20.7,-,N/A,,Mostly Cloudy,90,2011-12-25 06:30:00
2:00 PM,86.0,73.4,66,29.77,6.2,East,17.3,-,N/A,,Mostly Cloudy,100,2011-12-25 07:00:00
2:30 PM,86.0,71.6,62,29.74,6.2,East,25.3,-,N/A,,Mostly Cloudy,100,2011-12-25 07:30:00
3:00 PM,86.0,71.6,62,29.74,6.2,East,19.6,-,N/A,,Mostly Cloudy,90,2011-12-25 08:00:00
3:30 PM,86.0,71.6,62,29.74,6.2,East,19.6,-,N/A,,Mostly Cloudy,100,2011-12-25 08:30:00
4:00 PM,86.0,71.6,62,29.74,6.2,East,23.0,-,N/A,,Mostly Cloudy,100,2011-12-25 09:00:00
4:30 PM,86.0,71.6,62,29.74,6.2,East,23.0,-,N/A,,Mostly Cloudy,100,2011-12-25 09:30:00
5:00 PM,84.2,71.6,66,29.74,6.2,East,19.6,-,N/A,,Mostly Cloudy,100,2011-12-25 10:00:00
5:30 PM,84.2,71.6,66,29.74,6.2,East,19.6,-,N/A,,Mostly Cloudy,90,2011-12-25 10:30:00
6:00 PM,82.4,71.6,70,29.77,6.2,East,19.6,-,N/A,,Mostly Cloudy,100,2011-12-25 11:00:00
6:30 PM,82.4,71.6,70,29.77,6.2,East,17.3,-,N/A,,Mostly Cloudy,100,2011-12-25 11:30:00
7:00 PM,83,72,63,29.74,6,East,19.6,,,,Scattered Clouds,100,2011-12-25 12:00:00
7:00 PM,82.4,69.8,66,29.77,6.2,East,18.4,-,N/A,,Mostly Cloudy,100,2011-12-25 12:00:00
7:30 PM,80.6,69.8,70,29.77,6.2,East,18.4,-,N/A,,Mostly Cloudy,100,2011-12-25 12:30:00
8:00 PM,80.6,69.8,70,29.77,6.2,East,17.3,-,N/A,,Mostly Cloudy,100,2011-12-25 13:00:00
8:30 PM,80.6,71.6,74,29.80,5.6,East,20.7,-,N/A,,Mostly Cloudy,90,2011-12-25 13:30:00
9:00 PM,80.6,71.6,74,29.80,5.6,East,18.4,-,N/A,,Mostly Cloudy,90,2011-12-25 14:00:00
9:30 PM,80.6,69.8,70,29.83,5.6,East,19.6,-,N/A,,Mostly Cloudy,90,2011-12-25 14:30:00
10:00 PM,80.6,69.8,70,29.83,5.6,East,20.7,-,N/A,,Mostly Cloudy,90,2011-12-25 15:00:00
10:30 PM,80.6,69.8,70,29.83,5.6,East,12.7,-,N/A,,Mostly Cloudy,90,2011-12-25 15:30:00
11:00 PM,80.6,69.8,70,29.83,5.6,East,17.3,-,N/A,,Mostly Cloudy,80,2011-12-25 16:00:00
11:30 PM,80.6,69.8,70,29.80,5.6,East,16.1,-,N/A,,Mostly Cloudy,80,2011-12-25 16:30:00